Regional Weather Roundup
Issued by NWS

Home | Current Version | Previous Version | Graphics & Text | Print | Product List | Glossary On
Versions: 1 2 3 4 5 6 7 8 9 10 11 12 13 14 15 16 17 18 19 20 21 22 23 24 25 26 27 28 29 30 31 32 33 34 35 36 37 38 39 40 41 42 43 44 45 46 47 48 49 50
000
ASUS43 KTOP 300208
RWRKS

WEATHER ROUNDUP FOR KANSAS
NATIONAL WEATHER SERVICE GOODLAND KS
900 PM CDT SUN MAR 29 2015

NOTE:  "FAIR" INDICATES FEW OR NO CLOUDS BELOW 12,000 FEET WITH NO
SIGNIFICANT WEATHER AND/OR OBSTRUCTIONS TO VISIBILITY.

KSZ001>006-013>018-027>032-041>047-300300-
NORTHWEST KANSAS

CITY           SKY/WX    TMP DP  RH WIND       PRES   REMARKS
GOODLAND       CLEAR     45  20  36 SE7       30.19R
HAYS           CLEAR     46  12  25 N8        30.17S
HILL CITY      CLEAR     43  16  33 N5        30.17S
RUSSELL        CLEAR     53  16  23 N8        30.16R
$$

KSZ061>065-074>080-084>089-300300-
SOUTHWEST KANSAS

CITY           SKY/WX    TMP DP  RH WIND       PRES   REMARKS
DODGE CITY     CLEAR     53  22  29 N6        30.19R
GARDEN CITY    CLEAR     52  24  33 NE8       30.18R
GREAT BEND     CLEAR     48  19  32 N8        30.17R
LIBERAL        CLEAR     59  27  29 NE5       30.20R
PRATT          CLEAR     54  27  35 N6        30.18R
$$

KSZ066>073-081>083-090>101-300300-
SOUTHEAST KANSAS

CITY           SKY/WX    TMP DP  RH WIND       PRES   REMARKS
CHANUTE        CLEAR     60  39  45 N12       30.12R
COFFEYVILLE    CLEAR     59  44  57 S3        30.11R
HUTCHINSON     CLEAR     59  28  30 N7        30.15R
MEDICINE LODGE   N/A     57  31  37 N5        30.15R
NEWTON         CLEAR     54  28  37 N8        30.17R
PARSONS        CLEAR     56  45  66 CALM      30.13R
WICHITA INTL   CLEAR     62  31  31 N7        30.13R
WICHITA JABRA  CLEAR     56  32  40 N9        30.14R
WICHITA MCCONL CLEAR     59  32  36 NE9       30.14R
WINFIELD       CLEAR     58  34  40 N7        30.14R
$$

KSZ007>012-019>026-033>040-048>060-102>105-300300-
NORTHEAST KANSAS

CITY           SKY/WX    TMP DP  RH WIND       PRES   REMARKS
CONCORDIA      CLEAR     53  22  29 CALM      30.16R
EMPORIA        CLEAR     55  35  47 N8        30.14R
LAWRENCE       CLEAR     49  35  58 N3        30.14R
MANHATTAN      CLEAR     50  31  48 CALM      30.15R
MARYSVILLE     FAIR      46  32  57 CALM      30.15R
OLATHE IND     CLEAR     50  37  61 NW6       30.14R
OLATHE EXE     CLEAR     55  37  50 N8        30.12R
SALINA         CLEAR     60  22  23 NE8       30.16R
TOPEKA BILLARD CLEAR     54  34  46 NW5       30.14R
TOPEKA FORBES  CLEAR     54  35  48 N7        30.14R
$$



USA.gov is the U.S. government's official web portal to all federal, state and local government web resources and services.